DeLand, FL

7:51 PM EST on November 14, 2019 (GMT -0500)
De Land Municipal-Taylor

Weather History for KDED - September, 2019

Change the Weather History Date:

Wednesday, September 4, 2019

  Actual Average Record
Temperature  
Mean Temperature 78 °F -  
Max Temperature 82 °F 90 °F 89 °F (2015)
Min Temperature 73 °F 70 °F 73 °F (2014)
Cooling Degree Days 12    
Growing Degree Days 28 (Base 50)    
Moisture  
Dew Point 73 °F    
Average Humidity 83    
Maximum Humidity 100    
Minimum Humidity 66    
Precipitation  
Precipitation 0.48 in - - ()
Sea Level Pressure  
Sea Level Pressure 29.68 in    
Wind  
Wind Speed 17 mph (WNW)    
Max Wind Speed 28 mph    
Max Gust Speed 36 mph    
Visibility 10 miles    
Events Rain    
Averages and records for this station are not official NWS values.
T = Trace of Precipitation, MM = Missing Value Source: NWS Daily Summary

Daily Weather History Graph

Daily Weather History Graph

Search for Another Location

Airport or City:

Astronomy

Sep. 04, 2019 Rise Set
Actual Time 7:04 AM EDT 7:43 PM EDT
Civil Twilight 6:40 AM EDT 8:07 PM EDT
Nautical Twilight 6:12 AM EDT 8:35 PM EDT
Astronomical Twilight 5:43 AM EDT 9:04 PM EDT
Moon 12:36 PM EDT (9/4) 11:46 PM EDT (9/4)
Length of Visible Light 13h 27m
Length of Day
12h 39m
Waxing Crescent, 34% of the Moon is Illuminated
Sep 4
Waxing Crescent
Sep 5
First Quarter
Sep 14
Full
Sep 21
Last Quarter
Sep 28
New

Hourly Weather History & Observations

Time (EDT) Temp. Heat Index Dew Point Humidity Pressure Visibility Wind Dir Wind Speed Gust Speed Precip Events Conditions
12:15 AM 75.2 °F - 73.4 °F 94% 29.71 in 10.0 mi NNW 15.0 mph 23.0 mph N/A   Scattered Clouds
12:35 AM 75.2 °F - 73.4 °F 94% 29.69 in 10.0 mi NNW 16.1 mph - N/A   Mostly Cloudy
12:55 AM 75.2 °F - 73.4 °F 94% 29.69 in 10.0 mi NW 16.1 mph 23.0 mph N/A   Mostly Cloudy
1:15 AM 75.2 °F - 73.4 °F 94% 29.67 in 10.0 mi NNW 17.3 mph 20.7 mph N/A Rain Light Rain
1:35 AM 75.2 °F - 73.4 °F 94% 29.67 in 10.0 mi NNW 17.3 mph 23.0 mph N/A Rain Light Rain
1:55 AM 77.0 °F - 73.4 °F 89% 29.66 in 10.0 mi NNW 18.4 mph 25.3 mph N/A Rain Light Rain
2:15 AM 75.2 °F - 73.4 °F 94% 29.64 in 10.0 mi NNW 18.4 mph 24.2 mph N/A Rain Light Rain
2:35 AM 75.2 °F - 73.4 °F 94% 29.63 in 10.0 mi NNW 17.3 mph 25.3 mph 0.01 in Rain Light Rain
2:55 AM 77.0 °F - 73.4 °F 89% 29.63 in 10.0 mi NW 18.4 mph 27.6 mph 0.01 in Rain Light Rain
3:35 AM 77.0 °F - 73.4 °F 89% 29.61 in 10.0 mi NNW 20.7 mph 33.4 mph N/A Rain Light Rain
3:55 AM 77.0 °F - 73.4 °F 89% 29.61 in 10.0 mi NNW 19.6 mph 33.4 mph N/A Rain Light Rain
4:15 AM 77.0 °F - 73.4 °F 89% 29.61 in 10.0 mi NW 18.4 mph 34.5 mph 0.01 in Rain Light Rain
4:35 AM 77.0 °F - 73.4 °F 89% 29.60 in 10.0 mi WNW 19.6 mph 31.1 mph 0.02 in Rain Light Rain
4:55 AM 75.2 °F - 73.4 °F 94% 29.60 in 10.0 mi WNW 20.7 mph 27.6 mph 0.02 in Rain Light Rain
5:15 AM 77.0 °F - 73.4 °F 89% 29.59 in 10.0 mi WNW 19.6 mph 29.9 mph 0.01 in Rain Light Rain
5:35 AM 75.2 °F - 73.4 °F 94% 29.60 in 7.0 mi NNW 23.0 mph 29.9 mph 0.06 in Rain Rain
5:55 AM 75.2 °F - 73.4 °F 94% 29.60 in 10.0 mi WNW 16.1 mph 27.6 mph 0.07 in Rain Light Rain
6:15 AM 75.2 °F - 73.4 °F 94% 29.60 in 10.0 mi WNW 18.4 mph 26.5 mph N/A Rain Light Rain
6:35 AM 75.2 °F - 73.4 °F 94% 29.59 in 10.0 mi WNW 13.8 mph 24.2 mph N/A Rain Light Rain
6:55 AM 75.2 °F - 73.4 °F 94% 29.60 in 5.0 mi WNW 16.1 mph 28.8 mph 0.03 in Rain Light Rain
7:15 AM 75.2 °F - 73.4 °F 94% 29.60 in 10.0 mi WNW 20.7 mph 31.1 mph 0.06 in Rain Light Rain
7:35 AM 75.2 °F - 73.4 °F 94% 29.62 in 3.5 mi WNW 27.6 mph 35.7 mph 0.20 in Rain Light Rain
7:55 AM 73.4 °F - 73.4 °F 100% 29.63 in 10.0 mi WNW 21.9 mph 32.2 mph 0.33 in Rain Light Rain
8:15 AM 75.2 °F - 73.4 °F 94% 29.63 in 10.0 mi WNW 18.4 mph 31.1 mph N/A   Overcast
8:35 AM 73.4 °F - 71.6 °F 94% 29.63 in 10.0 mi WNW 19.6 mph 27.6 mph N/A   Overcast
8:55 AM 73.4 °F - 71.6 °F 94% 29.64 in 10.0 mi WNW 19.6 mph 32.2 mph N/A   Overcast
9:15 AM 75.2 °F - 71.6 °F 89% 29.64 in 10.0 mi WNW 20.7 mph 26.5 mph N/A   Overcast
9:35 AM 75.2 °F - 71.6 °F 89% 29.65 in 5.0 mi WNW 16.1 mph 27.6 mph N/A   Overcast
9:55 AM 75.2 °F - 71.6 °F 89% 29.65 in 10.0 mi West 18.4 mph 27.6 mph N/A Rain Light Rain
10:15 AM 75.2 °F - 71.6 °F 89% 29.66 in 7.0 mi WNW 18.4 mph 28.8 mph N/A Rain Light Rain
10:35 AM 75.2 °F - 71.6 °F 89% 29.66 in 10.0 mi WNW 19.6 mph 26.5 mph N/A   Overcast
10:55 AM 75.2 °F - 71.6 °F 89% 29.67 in 7.0 mi WNW 21.9 mph 35.7 mph N/A Rain Rain
11:15 AM 75.2 °F - 73.4 °F 94% 29.67 in 10.0 mi West 18.4 mph 26.5 mph 0.01 in Rain Light Rain
11:35 AM 77.0 °F - 73.4 °F 89% 29.66 in 10.0 mi West 17.3 mph 24.2 mph 0.01 in   Mostly Cloudy
11:55 AM 78.8 °F - 73.4 °F 83% 29.66 in 10.0 mi WNW 15.0 mph 29.9 mph 0.01 in   Overcast
12:35 PM 80.6 °F 85.4 °F 73.4 °F 79% 29.67 in 10.0 mi West 17.3 mph 28.8 mph N/A   Overcast
12:55 PM 80.6 °F 85.4 °F 73.4 °F 79% 29.67 in 10.0 mi West 16.1 mph 28.8 mph N/A   Overcast
1:15 PM 80.6 °F 85.4 °F 73.4 °F 79% 29.67 in 10.0 mi WNW 18.4 mph 26.5 mph N/A   Overcast
1:35 PM 82.4 °F 88.2 °F 73.4 °F 74% 29.67 in 10.0 mi WNW 16.1 mph 32.2 mph N/A   Mostly Cloudy
1:55 PM 82.4 °F 87.2 °F 71.6 °F 70% 29.67 in 10.0 mi West 18.4 mph 25.3 mph N/A   Overcast
2:15 PM 82.4 °F 88.2 °F 73.4 °F 74% 29.66 in 10.0 mi West 13.8 mph 24.2 mph N/A   Overcast
2:35 PM 82.4 °F 88.2 °F 73.4 °F 74% 29.67 in 10.0 mi West 17.3 mph 23.0 mph N/A   Overcast
2:55 PM 82.4 °F 88.2 °F 73.4 °F 74% 29.68 in 10.0 mi West 15.0 mph 25.3 mph N/A Rain Rain
3:15 PM 82.4 °F 88.2 °F 73.4 °F 74% 29.68 in 10.0 mi West 15.0 mph 27.6 mph N/A   Overcast
3:35 PM 80.6 °F 85.4 °F 73.4 °F 79% 29.68 in 5.0 mi West 19.6 mph 29.9 mph 0.01 in Rain Rain
3:55 PM 80.6 °F 85.4 °F 73.4 °F 79% 29.68 in 10.0 mi West 11.5 mph 27.6 mph 0.01 in Rain Light Rain
4:15 PM 80.6 °F 85.4 °F 73.4 °F 79% 29.69 in 10.0 mi West 17.3 mph 29.9 mph N/A Rain Light Rain
4:35 PM 80.6 °F 85.4 °F 73.4 °F 79% 29.69 in 10.0 mi West 15.0 mph 23.0 mph N/A   Overcast
4:55 PM 82.4 °F 88.2 °F 73.4 °F 74% 29.69 in 10.0 mi West 16.1 mph 21.9 mph N/A   Overcast
5:15 PM 82.4 °F 88.2 °F 73.4 °F 74% 29.70 in 10.0 mi West 12.7 mph 26.5 mph N/A   Mostly Cloudy
5:35 PM 82.4 °F 88.2 °F 73.4 °F 74% 29.71 in 10.0 mi West 16.1 mph 25.3 mph N/A   Overcast
5:55 PM 82.4 °F 87.2 °F 71.6 °F 70% 29.72 in 10.0 mi West 17.3 mph 25.3 mph N/A   Mostly Cloudy
6:15 PM 82.4 °F 87.2 °F 71.6 °F 70% 29.73 in 10.0 mi West 16.1 mph 24.2 mph N/A   Overcast
6:35 PM 82.4 °F 87.2 °F 71.6 °F 70% 29.74 in 10.0 mi West 12.7 mph 19.6 mph N/A   Overcast
6:55 PM 82.4 °F 87.2 °F 71.6 °F 70% 29.74 in 10.0 mi West 11.5 mph 19.6 mph N/A   Mostly Cloudy
7:35 PM 82.4 °F 87.2 °F 71.6 °F 70% 29.74 in 10.0 mi West 13.8 mph 19.6 mph N/A   Scattered Clouds
7:55 PM 82.4 °F 87.2 °F 71.6 °F 70% 29.74 in 10.0 mi West 10.4 mph 19.6 mph N/A   Scattered Clouds
8:15 PM 82.4 °F 87.2 °F 71.6 °F 70% 29.76 in 10.0 mi West 12.7 mph 19.6 mph N/A   Scattered Clouds
8:35 PM 82.4 °F 87.2 °F 71.6 °F 70% 29.77 in 10.0 mi West 9.2 mph - N/A   Scattered Clouds
9:15 PM 82.4 °F 86.3 °F 69.8 °F 66% 29.77 in 10.0 mi West 10.4 mph 17.3 mph N/A   Clear
9:35 PM 82.4 °F 87.2 °F 71.6 °F 70% 29.77 in 10.0 mi West 10.4 mph 18.4 mph N/A   Clear
9:55 PM 82.4 °F 87.2 °F 71.6 °F 70% 29.78 in 10.0 mi West 9.2 mph - N/A   Clear
10:15 PM 82.4 °F 87.2 °F 71.6 °F 70% 29.79 in 10.0 mi West 8.1 mph 17.3 mph N/A   Clear
10:35 PM 82.4 °F 87.2 °F 71.6 °F 70% 29.79 in 10.0 mi West 9.2 mph - N/A   Clear
10:55 PM 82.4 °F 87.2 °F 71.6 °F 70% 29.80 in 10.0 mi West 6.9 mph - N/A   Clear
11:15 PM 82.4 °F 87.2 °F 71.6 °F 70% 29.80 in 10.0 mi West 8.1 mph - N/A   Clear
11:55 PM 80.6 °F 84.6 °F 71.6 °F 74% 29.80 in 10.0 mi WSW 9.2 mph - N/A   Clear